Flag for U.S.A. Weather past 2 weeks in Santa Rosa, California, U.S.A.

Now
49 °F

Clear.


Feels Like: 48 °F
Forecast: 44 / 73 °F
Wind: 3 mph from West

Location: Santa Rosa Sonoma County Airport

Current Time: Apr 26, 2015 at 4:37:09 AM

Latest Report: Apr 26, 2015 at 3:53 AM


Visibility: 10 mi

Pressure: 30.04 "Hg

Humidity: 71%

Dew point: 40 °F

Location of Santa RosaLocation

Historic Weather in Santa Rosa — Graph

°F

Santa Rosa temperature yesterday

Maximum temperature yesterday: 71 °F (at 3:53 PM)
Minimum temperature yesterday: 46 °F (at 5:53 AM)
Average temperature yesterday: 56 °F

Past Weeks' High & Low Weather Summary

 TemperatureHumidityPressure
High81 °F (Apr 16, 2:53 PM)100% (Apr 13, 5:04 AM)30.33 "Hg (Apr 13, 5:04 AM)
Low41 °F (Apr 17, 6:53 AM)12% (Apr 15, 4:53 PM)29.77 "Hg (Apr 23, 5:53 PM)
Average57 °F67%29.96 "Hg
* Reported Apr 11 2:53 AM — Apr 26 2:53 AM, Santa Rosa, Weather by CustomWeather, © 2015

Note: Actual official high and low records may vary slightly from our data, if they occured in-between our weather recording intervals... More about our weather records

Advertising

Santa Rosa weather history for previous 24 hours

 ConditionsComfort  
Time TempWeatherWind HumidityBarometerVisibility
2:53 AM
Sun, Apr 26
49 °FClear.8 mph74%30.03 "Hg10 mi
1:53 AM51 °FClear.10 mph71%30.03 "Hg10 mi
12:53 AM52 °FPassing clouds.12 mph69%30.03 "Hg10 mi
11:53 PM
Sat, Apr 25
52 °FPassing clouds.13 mph66%30.03 "Hg10 mi
10:53 PM53 °FClear.12 mph61%30.02 "Hg10 mi
9:53 PM55 °FClear.13 mph57%30.01 "Hg10 mi
8:53 PM57 °FSunny.13 mph53%29.99 "Hg10 mi
7:53 PM59 °FSunny.17 mph51%29.96 "Hg10 mi
6:53 PM64 °FScattered clouds.15 mph47%29.93 "Hg10 mi
5:53 PM67 °FScattered clouds.14 mph45%29.91 "Hg10 mi
4:53 PM70 °FScattered clouds.9 mph39%29.90 "Hg10 mi
3:53 PM71 °FScattered clouds.8 mph30%29.90 "Hg10 mi
2:53 PM68 °FScattered clouds.6 mph51%29.91 "Hg10 mi
1:53 PM67 °FSunny.No wind51%29.92 "Hg10 mi
12:53 PM63 °FScattered clouds.3 mph58%29.92 "Hg10 mi
11:53 AM62 °FScattered clouds.3 mph60%29.93 "Hg10 mi
10:53 AM59 °FScattered clouds.8 mph69%29.93 "Hg10 mi
10:00 AM55 °FScattered clouds.8 mph77%29.93 "Hg10 mi
9:00 AM52 °FScattered clouds.3 mph100%29.92 "Hg10 mi
8:00 AM50 °FFog.No wind100%29.91 "Hg1 mi
7:03 AM48 °FFog.No wind100%29.89 "Hg0 mi
6:53 AM49 °FFog.No wind97%29.87 "Hg1 mi
5:53 AM46 °FFog.No wind100%29.85 "Hg1 mi
5:00 AM48 °FFog.No wind94%29.87 "Hg0 mi
Weather by CustomWeather, © 2015

See weather overviewHow to use our weather pages